Location: Sternwarte ZA, Rosenfeld-Brittheim
(48.2889°N, 8.6789°E)
Time: 22:10:34
(UTC+01:00)

ISS - Pass Details

Date: 28 February 2021
Orbit: 417 x 422 km, 51.6° (Epoch: 02 March)

Event Time Altitude Azimuth Distance (km) Brightness Sun altitude
Exits shadow 04:06:31 14° 77° (ENE) 1,298 -0.5 -30.5°
Drops below altitude 10° 04:07:01 10° 74° (ENE) 1,499 -0.1 -30.4°
Sets 04:09:10 0° 69° (ENE) 2,365 1.3 -30.1°
